Location: ??????????
(54.8537°N, 38.8755°E)
Time: 22:22:32
(UTC+00:00)

Tiros 1 - Pass Details

Date: 18 September 2024
Orbit: 623 x 654 km, 48.4° (Epoch: 09 October)

Event Time Altitude Azimuth Distance (km) Brightness Sun altitude
Rises 17:45:29 0° 270° (W) 2,913 11.5 -18.9°
Reaches altitude 10° 17:49:06 10° 241° (WSW) 2,009 10.0 -19.3°
Maximum altitude 17:51:00 12° 217° (SW) 1,854 9.5 -19.5°
Enters shadow 17:52:45 10° 194° (SSW) 1,990 9.5 -19.8°
Drops below altitude 10° 17:52:54 10° 193° (SSW) 2,013 - -19.8°
Sets 17:56:32 0° 164° (SSE) 2,925 - -20.2°
